Weather History for Pittsburg, KS

Change the Weather History Date:

Monday, April 8, 2013

  Actual Average (KJLN) Record (KJLN)
Temperature  
Mean Temperature 68 °F 56 °F  
Max Temperature 74 °F 68 °F 86 °F (2001)
Min Temperature 62 °F 44 °F 19 °F (2007)
Degree Days  
Heating Degree Days 0 10  
Month to date heating degree days 87  
Since 1 July heating degree days 3849  
Cooling Degree Days 3 1  
Month to date cooling degree days 8  
Year to date cooling degree days 18  
Growing Degree Days 18 (Base 50)    
Moisture  
Dew Point 58 °F    
Average Humidity 73    
Maximum Humidity 92    
Minimum Humidity 61    
Precipitation  
Precipitation 0.00 in 0.13 in 0.93 in (2008)
Month to date precipitation 0.98  
Year to date precipitation 8.75  
Sea Level Pressure  
Sea Level Pressure 29.72 in    
Wind  
Wind Speed 12 mph (South)    
Max Wind Speed 22 mph    
Max Gust Speed 29 mph    
Visibility 10 miles    
Events      
T = Trace of Precipitation, MM = Missing Value Source: NWS Daily Summary

Daily Weather History Graph

Daily Weather History Graph

Search for Another Location

Airport:

Trip Planner

Search our weather history database for the weather conditions in past years. The results will help you decide how hot, cold, wet, or windy it might be!

Date:

Astronomy

Apr. 08, 2013 Rise Set
Actual Time 6:53 AM CDT 7:48 PM CDT
Civil Twilight 6:27 AM CDT 8:14 PM CDT
Nautical Twilight 5:55 AM CDT 8:46 PM CDT
Astronomical Twilight 5:23 AM CDT 9:19 PM CDT
Moon 5:42 AM CDT (4/8) 6:24 PM CDT (4/8)
Length of Visible Light 13h 47m
Length of Day
12h 54m
Waning Crescent, 3% of the Moon is Illuminated
Apr 8
Waning Crescent
Apr 10
New
Apr 18
First Quarter
Apr 25
Full
May 2
Last Quarter

Hourly Weather History & Observations

Time (CDT) Temp. Dew Point Humidity Pressure Visibility Wind Dir Wind Speed Gust Speed Precip Events Conditions
12:15 AM 63.7 °F 55.4 °F 74% 29.72 in 10.0 mi South 11.5 mph 17.3 mph N/A   Scattered Clouds
12:35 AM 63.5 °F 55.2 °F 74% 29.73 in 10.0 mi SSW 11.5 mph - N/A   Clear
12:55 AM 63.5 °F 55.6 °F 75% 29.73 in 10.0 mi SSW 12.7 mph 17.3 mph N/A   Scattered Clouds
1:15 AM 63.5 °F 55.6 °F 75% 29.74 in 10.0 mi SSW 16.1 mph - N/A   Scattered Clouds
1:35 AM 63.9 °F 55.6 °F 74% 29.74 in 10.0 mi SSW 11.5 mph - N/A   Mostly Cloudy
1:55 AM 63.7 °F 55.6 °F 75% 29.73 in 10.0 mi SSW 10.4 mph - N/A   Mostly Cloudy
2:15 AM 63.7 °F 55.4 °F 74% 29.73 in 10.0 mi SSW 6.9 mph - N/A   Mostly Cloudy
2:35 AM 63.5 °F 55.6 °F 75% 29.73 in - SSW 5.8 mph - N/A   Mostly Cloudy
2:55 AM 63.5 °F 56.1 °F 77% 29.72 in 10.0 mi SSW 8.1 mph - N/A   Mostly Cloudy
3:15 AM 63.3 °F 56.5 °F 78% 29.72 in 10.0 mi SSW 6.9 mph - N/A   Mostly Cloudy
3:35 AM 62.2 °F 55.9 °F 80% 29.71 in 10.0 mi SSW 8.1 mph - N/A   Mostly Cloudy
3:55 AM 62.6 °F 55.6 °F 78% 29.70 in 10.0 mi South 11.5 mph 18.4 mph N/A   Scattered Clouds
4:15 AM 63.5 °F 55.2 °F 74% 29.70 in 10.0 mi South 9.2 mph - N/A   Scattered Clouds
4:35 AM 63.5 °F 55.4 °F 75% 29.70 in 10.0 mi South 10.4 mph - N/A   Clear
4:55 AM 62.6 °F 55.2 °F 77% 29.68 in 10.0 mi South 12.7 mph 18.4 mph N/A   Clear
5:15 AM 62.6 °F 55.4 °F 77% 29.69 in 10.0 mi South 12.7 mph - N/A   Clear
5:35 AM 62.2 °F 55.4 °F 78% 29.68 in 10.0 mi South 13.8 mph 17.3 mph N/A   Clear
5:55 AM 63.1 °F 55.8 °F 77% 29.67 in 10.0 mi South 16.1 mph 20.7 mph N/A   Clear
6:15 AM 63.1 °F 56.1 °F 78% 29.69 in 10.0 mi SSW 9.2 mph - N/A   Clear
6:35 AM 62.1 °F 56.7 °F 82% 29.70 in 10.0 mi SSW 10.4 mph - N/A   Clear
6:55 AM 62.1 °F 58.3 °F 87% 29.71 in 10.0 mi SSW 8.1 mph - N/A   Clear
7:15 AM 62.1 °F 59.4 °F 91% 29.72 in 10.0 mi SSW 10.4 mph - N/A   Scattered Clouds
7:35 AM 62.1 °F 59.7 °F 92% 29.72 in 10.0 mi South 9.2 mph - N/A   Scattered Clouds
7:55 AM 63.1 °F 59.5 °F 88% 29.73 in 10.0 mi SSW 11.5 mph - N/A   Clear
8:15 AM 63.9 °F 58.5 °F 83% 29.75 in 10.0 mi SSW 6.9 mph - N/A   Mostly Cloudy
8:35 AM 65.7 °F 58.1 °F 77% 29.75 in 10.0 mi SSW 11.5 mph 18.4 mph N/A   Overcast
8:55 AM 66.0 °F 57.7 °F 75% 29.75 in 10.0 mi SSW 12.7 mph - N/A   Overcast
9:15 AM 66.0 °F 57.4 °F 74% 29.76 in 10.0 mi South 15.0 mph 21.9 mph N/A   Overcast
9:35 AM 65.8 °F 57.4 °F 74% 29.76 in 10.0 mi SSW 16.1 mph - N/A   Overcast
9:55 AM 67.3 °F 58.6 °F 74% 29.76 in 10.0 mi SSW 17.3 mph 20.7 mph N/A   Overcast
10:15 AM 68.4 °F 59.5 °F 73% 29.75 in 10.0 mi South 16.1 mph 24.2 mph N/A   Scattered Clouds
10:35 AM 68.4 °F 59.5 °F 73% 29.75 in 10.0 mi South 18.4 mph 27.6 mph N/A   Clear
10:55 AM 68.9 °F 59.4 °F 72% 29.75 in 10.0 mi SSW 21.9 mph 26.5 mph N/A   Clear
11:15 AM 70.9 °F 60.3 °F 69% 29.75 in 10.0 mi South 21.9 mph 28.8 mph N/A   Scattered Clouds
11:35 AM 70.9 °F 60.1 °F 69% 29.75 in 10.0 mi South 18.4 mph 28.8 mph N/A   Mostly Cloudy
11:55 AM 70.9 °F 59.9 °F 68% 29.75 in 10.0 mi SSW 18.4 mph 23.0 mph N/A   Mostly Cloudy
12:15 PM 70.9 °F 59.7 °F 68% 29.74 in 10.0 mi South 16.1 mph 26.5 mph N/A   Scattered Clouds
12:35 PM 70.9 °F 59.5 °F 67% 29.74 in 10.0 mi South 17.3 mph 26.5 mph N/A   Mostly Cloudy
12:55 PM 70.9 °F 59.9 °F 68% 29.74 in 10.0 mi SSW 15.0 mph 24.2 mph N/A   Mostly Cloudy
1:15 PM 70.9 °F 60.1 °F 69% 29.73 in 10.0 mi South 15.0 mph 19.6 mph N/A   Mostly Cloudy
1:35 PM 70.9 °F 59.7 °F 68% 29.73 in 10.0 mi SSW 16.1 mph - N/A   Mostly Cloudy
1:55 PM 70.9 °F 59.0 °F 66% 29.72 in 10.0 mi SSW 17.3 mph 21.9 mph N/A   Mostly Cloudy
2:15 PM 70.9 °F 59.2 °F 66% 29.72 in 10.0 mi SSW 13.8 mph - N/A   Overcast
2:35 PM 70.9 °F 59.7 °F 68% 29.72 in 10.0 mi SSW 15.0 mph - N/A   Overcast
2:55 PM 70.9 °F 59.5 °F 67% 29.71 in 10.0 mi SSW 15.0 mph 19.6 mph N/A   Overcast
3:15 PM 70.9 °F 59.0 °F 66% 29.71 in 10.0 mi SSW 15.0 mph 18.4 mph N/A   Overcast
3:35 PM 70.9 °F 58.5 °F 65% 29.70 in 10.0 mi SSW 12.7 mph 17.3 mph N/A   Overcast
3:55 PM 71.6 °F 59.0 °F 64% 29.70 in 10.0 mi South 11.5 mph - N/A   Overcast
4:15 PM 71.1 °F 58.5 °F 64% 29.70 in 10.0 mi South 9.2 mph - N/A   Overcast
4:35 PM 72.0 °F 59.4 °F 64% 29.70 in 10.0 mi South 6.9 mph - N/A   Overcast
4:55 PM 73.4 °F 59.7 °F 62% 29.69 in 10.0 mi SSW 13.8 mph 17.3 mph N/A   Mostly Cloudy
5:15 PM 74.5 °F 60.4 °F 61% 29.69 in 10.0 mi SSW 13.8 mph 17.3 mph N/A   Mostly Cloudy
5:35 PM 72.0 °F 59.0 °F 64% 29.70 in 10.0 mi SSW 17.3 mph - N/A   Mostly Cloudy
5:55 PM 71.4 °F 58.3 °F 63% 29.70 in 10.0 mi South 11.5 mph - N/A   Mostly Cloudy
6:15 PM 71.2 °F 57.9 °F 63% 29.70 in 10.0 mi South 17.3 mph 20.7 mph N/A   Mostly Cloudy
6:35 PM 70.9 °F 58.3 °F 64% 29.71 in 10.0 mi South 13.8 mph 17.3 mph N/A   Overcast
6:55 PM 70.9 °F 58.6 °F 65% 29.71 in 10.0 mi SSE 12.7 mph - N/A   Overcast
7:15 PM 70.9 °F 59.2 °F 66% 29.71 in 10.0 mi SSE 9.2 mph 17.3 mph N/A   Overcast
7:35 PM 70.9 °F 59.4 °F 67% 29.71 in 10.0 mi SSE 9.2 mph - N/A   Overcast
7:55 PM 70.9 °F 59.9 °F 68% 29.71 in 10.0 mi SE 12.7 mph 17.3 mph N/A   Overcast
8:15 PM 69.6 °F 59.7 °F 71% 29.71 in 10.0 mi SE 15.0 mph - N/A   Overcast
8:35 PM 68.4 °F 59.2 °F 72% 29.71 in 10.0 mi SSE 11.5 mph - N/A   Overcast
8:55 PM 68.4 °F 59.7 °F 74% 29.71 in 10.0 mi SSE 12.7 mph - N/A   Overcast
9:15 PM 68.4 °F 59.9 °F 74% 29.71 in 10.0 mi SE 10.4 mph 19.6 mph N/A   Overcast
9:35 PM 68.4 °F 59.9 °F 74% 29.72 in 10.0 mi SE 9.2 mph - N/A   Overcast
9:55 PM 67.6 °F 59.5 °F 75% 29.72 in 10.0 mi SE 9.2 mph - N/A   Mostly Cloudy
10:15 PM 66.0 °F 59.0 °F 78% 29.72 in 10.0 mi SE 6.9 mph - N/A   Mostly Cloudy
10:35 PM 65.8 °F 59.2 °F 79% 29.72 in 10.0 mi SE 5.8 mph - N/A   Overcast
10:55 PM 65.8 °F 59.7 °F 81% 29.72 in 10.0 mi SE 5.8 mph - N/A   Overcast
11:15 PM 65.8 °F 59.9 °F 81% 29.72 in 10.0 mi SE 3.5 mph - N/A   Overcast
11:35 PM 64.8 °F 59.5 °F 83% 29.72 in 10.0 mi ESE 4.6 mph - N/A   Overcast
11:55 PM 64.6 °F 59.5 °F 84% 29.72 in 10.0 mi SE 4.6 mph - N/A   Overcast